SCP
-0 0 0 -0 0 -0 -0 -0 -0 -0 -0 -0 -0 -0 0 0 0 -0 -0 -0 -0 0 0 0 0 0 0 0 0 0 0 0 0 0 0 0 0 0 0 0 0 0 0
0 0 0 -0 0 -0 -0 -0 -0 -0 -0 -0 -0 0 0 0 0 0 0 0 0 0 0 0 0 0 0 0 0 0 0 0 0 0 0 0 0 0 0 0 0 0 0
-0 0 0 -0 0 0 -0 -0 -0 -0 -0 -0 -0 0 0 0 0 0 0 0 0 0 0 0 0 0 0 0 0 0 0 0 0 0 0 0 0 0 0 0 0 0 0
-0 0 0 -0 0 0 0 -0 -0 -0 -0 -0 -0 0 0 0 0 0 0 0 0 0 0 0 0 0 0 0 0 0 0 0 0 0 0 -0 -0 0 0 0 0 0 0
0 -0 0 -0 0 0 -0 -0 -0 -0 -0 -0 0 0 0 0 0 0 0 0 0 0 0 0 0 0 0 0 0 0 0 0 0 0 0 0 0 0 0 0 0 0 0
0 -0 0 -0 -0 0 -0 -0 -0 -0 -0 0 0 0 0 0 0 0 0 0 0 0 0 0 0 0 0 0 0 0 0 0 0 0 0 0 0 0 0 0 0 0 0
0 -0 -0 -0 -0 0 -0 -0 -0 -0 -0 -0 0 0 0 0 0 0 0 0 0 0 0 0 0 0 0 0 0 0 0 0 0 0 0 0 0 0 0 0 0 0 0
0 0 0 -0 -0 -0 -0 -0 -0 -0 -0 -0 0 0 0 0 1 0 0 0 0 0 0 0 0 0 0 0 0 0 0 0 0 0 0 0 0 0 0 0 0 0 0
0 0 0 0 -0 -0 0 -0 -0 -0 -0 -0 0 0 0 1 1 0 0 0 0 0 0 0 0 0 0 0 0 0 0 0 0 0 0 0 0 0 0 0 0 0 0
0 0 0 0 0 -0 -0 0 -0 -0 -0 -0 0 0 0 1 1 1 0 0 0 0 0 0 0 0 0 0 0 0 0 0 0 0 0 0 0 0 0 0 0 0 0
0 0 0 0 0 -0 -0 -0 0 -0 -0 0 0 0 1 1 1 1 0 0 0 0 0 0 0 0 0 0 0 0 0 0 0 0 0 0 0 0 0 0 0 0 0
0 0 0 0 0 0 -0 -0 0 0 0 0 0 1 1 0 0 0 0 0 0 0 0 0 1 1 0 0 0 0 0 0 0 0 0 0 0 0 0 0 0 0 0
0 0 0 0 0 0 0 0 0 0 0 0 0 0 0 0 0 0 0 0 0 0 0 0 1 1 0 0 0 0 0 0 0 0 0 0 0 0 0 0 0 0 0
0 0 0 0 0 0 0 0 0 0 0 0 0 0 0 0 0 0 0 0 0 0 0 0 0 0 0 0 0 0 0 0 0 0 0 0 0 0 0 0 0 0 0
-0 0 0 0 0 0 0 0 0 0 0 0 0 0 0 0 0 0 0 0 0 0 0 0 0 0 0 0 0 0 0 0 0 0 0 0 0 0 0 0 0 -0 0
0 1 0 0 0 0 0 0 0 0 0 0 0 0 0 0 0 0 0 0 0 0 0 0 0 0 0 0 0 0 0 0 0 0 0 0 0 -0 0 1 -0 -0 0
0 1 1 0 0 0 0 0 0 0 0 0 0 0 0 0 0 0 0 0 0 0 0 0 0 0 0 0 0 0 0 0 0 0 0 0 0 0 0 0 0 0 0
0 0 1 2 1 0 0 0 0 0 0 0 0 0 0 0 0 0 0 0 0 0 0 0 0 0 0 0 0 0 0 0 0 0 0 0 0 0 0 0 0 0 0
0 0 1 2 1 0 0 0 0 0 0 0 0 0 0 0 0 0 0 0 0 0 0 0 0 0 0 0 0 0 0 0 0 0 0 0 0 0 0 0 0 0 0
0 0 0 0 1 1 1 1 1 1 0 0 0 0 0 0 0 0 0 0 0 0 0 0 0 0 0 0 0 0 0 0 0 0 0 0 0 0 0 0 0 0 0
0 0 0 0 0 1 1 1 1 1 1 1 0 1 1 1 0 0 0 0 0 0 0 0 0 0 0 0 0 0 0 0 0 0 0 0 0 0 0 0 0 0 0
0 0 0 0 0 1 1 1 2 2 1 1 1 1 1 1 1 0 0 0 0 0 0 0 0 0 0 0 0 0 0 0 0 0 0 0 0 0 0 0 0 0 0
0 0 0 0 0 1 2 1 0 0 0 0 0 1 1 1 1 1 0 0 0 0 0 0 0 0 0 0 0 0 0 0 0 0 0 0 0 0 0 0 0 0 0
0 0 0 0 0 2 3 1 1 1 2 1 1 0 0 1 2 1 1 0 0 0 0 0 0 0 0 0 0 0 0 0 0 0 0 0 0 0 0 0 0 0 0
0 0 0 0 0 1 2 2 1 0 0 0 1 1 1 2 2 2 1 1 1 0 0 0 0 0 0 0 0 0 0 0 0 0 0 0 0 0 0 0 0 0 0
-0 0 0 0 0 0 1 1 1 1 0 0 0 1 1 2 2 2 1 1 1 1 1 0 0 0 0 0 0 0 0 0 0 0 0 0 0 0 0 0 0 0 0
Wind_Speed_500mb
65 63 60 55 53 52 53 51 47 45 43 43 43 41 39 36 32 29 25 23 21 19 18 17 16 14 13 12 8 5 3 3 4 4 5 6 3 3 5 4 2 4 6
77 71 65 59 57 55 55 53 52 49 46 45 44 43 40 36 32 27 24 21 19 18 16 15 14 13 13 13 12 9 5 5 6 7 6 7 7 5 4 0 3 3 1
78 77 69 63 61 59 57 53 51 50 49 46 42 38 36 32 28 24 21 18 17 14 13 12 11 10 11 11 11 11 7 5 8 10 11 9 7 5 4 2 7 7 2
82 80 74 68 65 62 58 54 51 49 45 43 39 35 31 28 25 22 19 15 13 11 9 9 9 9 9 10 10 11 7 6 12 11 10 10 12 9 5 5 7 5 2
86 79 77 72 67 64 59 55 50 50 47 43 39 34 30 26 23 20 17 14 11 9 9 7 5 4 6 7 7 7 6 11 15 9 7 11 9 14 10 8 11 9 8
85 81 76 72 68 65 60 54 48 48 46 42 38 35 31 27 23 19 17 15 14 13 11 9 7 5 3 3 2 3 6 12 16 12 8 6 6 10 13 15 15 13 8
87 79 76 72 69 66 61 54 48 46 44 40 36 33 30 27 24 22 20 19 18 17 15 13 13 11 7 4 4 4 6 12 18 16 13 10 6 3 4 13 13 18 7
88 84 77 73 69 65 62 57 49 45 42 37 34 32 30 27 26 24 25 24 23 22 21 20 20 17 14 11 10 8 6 10 19 22 22 12 10 9 5 9 13 16 11
84 82 80 77 72 66 62 57 51 46 41 36 32 31 30 30 29 29 31 30 29 28 27 28 26 23 22 19 17 13 11 12 16 19 24 21 11 10 10 9 14 17 17
87 81 80 77 74 69 63 59 53 46 41 37 32 32 31 32 33 35 36 37 35 35 34 34 31 31 29 28 24 19 17 15 16 18 20 24 17 10 10 12 13 18 19
87 82 79 77 74 69 64 60 57 50 43 39 35 33 35 37 38 39 39 41 41 41 40 39 37 38 36 36 32 25 23 19 20 21 22 18 17 11 14 17 16 18 21
89 83 79 76 73 68 65 62 59 54 50 46 39 36 36 38 39 41 42 43 46 47 45 43 43 44 44 42 38 32 27 24 24 24 22 18 19 16 17 20 19 19 20
90 85 82 78 73 68 66 64 61 58 53 48 44 40 38 41 42 45 44 43 47 49 49 48 48 49 47 48 43 38 33 31 28 26 25 25 24 23 25 21 20 18 19
81 83 81 78 75 70 68 66 61 59 56 50 48 44 41 42 41 44 41 39 42 45 48 49 49 49 50 50 46 44 39 36 33 35 31 27 27 32 33 28 20 16 18
69 81 82 81 78 75 72 69 64 64 59 51 49 49 42 43 41 40 38 35 33 36 38 43 44 45 47 45 41 39 38 38 38 41 41 37 33 40 37 24 34 23 20
64 77 89 85 84 83 79 75 71 65 61 55 52 50 45 44 41 37 36 35 31 30 27 33 35 38 37 37 29 27 28 28 28 31 35 33 36 49 32 32 46 32 22
41 74 89 87 84 84 82 72 73 65 60 54 52 51 48 46 42 39 40 37 32 30 27 30 32 34 35 34 28 23 22 23 22 25 33 38 44 39 40 40 31 35 22
33 41 81 91 88 88 83 77 75 61 53 52 46 47 48 47 46 46 48 41 35 36 33 32 33 33 35 33 30 26 24 28 30 30 38 38 32 31 35 41 39 39 32
44 41 49 79 97 89 83 79 67 58 58 57 46 47 49 45 50 53 53 48 41 42 39 38 36 34 37 33 26 23 26 33 35 34 40 37 39 42 45 44 46 43 38
53 49 47 59 64 85 84 78 67 59 51 55 50 53 53 50 54 55 55 52 46 45 42 45 40 34 35 31 33 36 34 35 38 38 42 39 47 44 49 45 45 50 47
45 50 56 50 69 77 78 85 76 62 65 63 60 60 59 56 57 57 56 54 43 44 43 45 41 36 36 33 36 37 36 37 36 37 40 43 50 52 39 37 36 40 46
48 51 63 63 56 78 80 86 89 86 82 76 61 65 55 57 58 59 58 46 38 37 45 46 43 39 35 40 40 35 36 34 35 35 41 42 36 35 38 36 38 37 38
57 55 57 64 69 68 78 105 99 92 88 81 72 65 64 59 55 56 50 38 34 36 44 44 43 40 40 39 39 32 17 17 15 18 18 20 29 35 36 35 37 40 44
73 62 61 60 64 70 69 84 110 105 97 87 71 68 59 53 53 49 43 35 32 36 40 41 40 41 41 39 37 39 38 36 27 16 18 26 30 32 29 27 25 25 30
78 76 69 64 61 69 74 72 100 109 106 90 79 58 50 51 53 49 38 35 34 37 39 39 42 39 38 38 37 41 38 38 39 35 36 31 24 23 23 25 20 22 21
81 84 76 67 66 65 81 74 95 111 112 97 69 59 55 55 52 47 38 38 34 37 38 42 37 37 34 30 31 36 36 34 36 30 31 31 27 23 19 19 19 19 18
Wind_Direction_500mb
170 163 154 155 153 153 151 150 151 151 152 151 150 147 144 142 139 135 132 128 126 120 114 109 106 107 106 102 104 110 141 209 241 233 210 198 204 128 68 72 141 93 94
162 163 157 158 155 154 152 150 152 152 151 151 148 147 145 144 142 139 136 132 124 116 110 107 103 100 97 98 98 101 117 150 164 172 172 173 167 135 129 269 264 306 303
164 161 161 161 159 159 157 155 156 156 157 156 155 154 152 151 149 148 147 144 136 131 126 123 118 111 102 95 101 105 114 141 156 150 140 145 132 99 70 263 275 310 258
167 161 163 166 163 163 162 161 162 163 165 161 161 164 163 164 163 161 160 158 154 151 154 152 145 133 124 119 110 100 116 157 159 152 136 119 95 83 26 355 325 273 224
168 164 165 169 168 168 167 168 169 173 173 172 170 176 178 177 178 178 175 176 184 186 194 190 185 159 137 108 91 102 142 175 184 174 163 149 93 61 28 353 346 315 229
170 167 170 171 173 173 174 175 179 180 180 181 182 185 189 188 190 195 198 203 209 215 220 225 232 231 189 114 144 157 168 188 208 201 214 215 130 77 41 11 354 335 239
171 172 174 177 178 179 180 181 186 187 188 189 192 195 198 202 207 213 219 223 227 228 238 245 249 252 250 257 256 231 191 198 222 231 244 256 225 139 33 349 334 352 267
174 174 176 181 181 184 186 186 192 193 194 197 202 207 211 216 222 228 235 237 239 239 244 249 254 257 260 262 262 258 236 219 228 239 253 247 234 220 245 305 317 347 321
179 177 179 183 185 187 191 192 196 199 199 203 211 218 222 227 233 238 243 245 246 248 248 250 256 259 263 264 263 264 257 248 249 253 247 248 253 230 230 253 295 314 326
181 183 184 186 188 190 193 198 201 204 205 208 216 225 231 234 239 243 248 251 252 253 252 254 255 261 263 266 265 264 263 259 265 271 261 248 245 243 229 257 286 304 314
185 188 190 190 193 194 196 201 204 207 211 214 220 231 237 241 244 247 252 256 258 257 254 255 258 260 262 263 265 265 266 261 261 274 262 243 236 250 247 262 278 305 304
190 192 195 197 198 198 201 205 210 210 213 218 222 232 243 249 253 254 256 257 261 260 258 257 258 259 261 263 265 265 268 265 257 268 242 229 244 256 261 263 268 294 296
197 196 199 202 202 204 208 212 215 218 219 222 228 233 246 250 255 258 260 262 265 265 262 262 262 262 265 267 269 269 268 265 258 252 230 238 254 266 253 243 257 288 297
204 206 207 207 208 211 215 219 223 226 226 226 234 237 244 253 256 260 264 269 268 269 269 267 265 265 266 268 271 272 269 265 261 247 236 242 262 263 255 248 253 288 305
230 218 214 214 214 216 221 224 227 230 232 235 241 244 245 252 256 262 268 269 267 269 274 271 268 266 266 268 272 276 273 265 263 256 242 254 259 266 263 269 267 263 290
256 245 224 220 220 217 220 224 225 231 237 239 242 247 250 254 259 264 267 268 267 272 278 278 273 268 264 263 263 278 281 256 257 248 242 252 268 265 255 272 246 252 279
261 249 235 223 223 224 223 228 231 230 236 235 243 251 254 258 266 271 271 269 278 275 282 276 270 260 252 252 254 265 275 248 238 248 251 261 278 264 270 263 262 262 265
284 267 245 237 229 228 226 222 232 224 228 239 243 255 256 262 271 278 278 277 282 277 279 274 271 264 251 250 255 257 266 258 249 256 268 279 275 267 270 278 275 271 266
279 281 267 245 240 233 229 229 226 227 238 241 246 252 252 260 271 279 283 282 276 274 276 274 270 271 255 253 258 267 269 260 255 261 270 274 282 278 275 272 269 263 260
285 273 262 255 248 240 234 231 227 236 235 246 251 252 251 260 269 276 284 285 280 276 277 270 268 268 259 260 265 273 267 265 258 263 269 273 275 285 287 279 253 250 254
310 269 254 259 251 243 236 226 230 234 236 241 249 254 251 259 267 275 281 280 281 275 276 266 262 261 254 256 264 271 272 268 266 264 270 278 283 286 278 270 256 257 253
310 297 267 256 244 243 233 226 228 239 234 240 248 250 249 256 263 273 278 276 276 274 268 257 252 254 249 249 257 265 264 269 269 269 272 281 278 276 273 267 262 261 253
298 302 290 274 259 249 242 234 237 230 232 234 242 241 242 249 262 275 268 270 278 270 264 255 252 250 244 245 251 246 259 261 279 273 270 280 279 275 274 268 262 257 247
292 290 295 285 273 259 252 243 239 232 232 236 242 242 240 251 267 267 262 263 270 266 261 253 251 249 240 242 243 247 252 263 270 280 282 288 292 280 281 278 275 264 257
289 288 289 292 279 264 242 241 234 233 234 240 243 237 242 257 264 259 257 256 262 265 253 248 251 239 238 240 245 249 253 259 263 264 279 292 294 287 280 275 271 256 246
286 281 277 283 283 258 243 240 235 237 238 236 239 237 247 255 258 252 250 249 261 260 251 250 231 232 242 238 246 249 253 258 260 263 269 283 286 292 283 276 262 252 235
Wind_Speed_850mb
65 63 60 55 53 52 53 51 47 45 43 43 43 41 39 36 32 29 25 23 21 19 18 17 16 14 13 12 8 5 3 3 4 4 5 6 3 3 5 4 2 4 6
77 71 65 59 57 55 55 53 52 49 46 45 44 43 40 36 32 27 24 21 19 18 16 15 14 13 13 13 12 9 5 5 6 7 6 7 7 5 4 0 3 3 1
78 77 69 63 61 59 57 53 51 50 49 46 42 38 36 32 28 24 21 18 17 14 13 12 11 10 11 11 11 11 7 5 8 10 11 9 7 5 4 2 7 7 2
82 80 74 68 65 62 58 54 51 49 45 43 39 35 31 28 25 22 19 15 13 11 9 9 9 9 9 10 10 11 7 6 12 11 10 10 12 9 5 5 7 5 2
86 79 77 72 67 64 59 55 50 50 47 43 39 34 30 26 23 20 17 14 11 9 9 7 5 4 6 7 7 7 6 11 15 9 7 11 9 14 10 8 11 9 8
85 81 76 72 68 65 60 54 48 48 46 42 38 35 31 27 23 19 17 15 14 13 11 9 7 5 3 3 2 3 6 12 16 12 8 6 6 10 13 15 15 13 8
87 79 76 72 69 66 61 54 48 46 44 40 36 33 30 27 24 22 20 19 18 17 15 13 13 11 7 4 4 4 6 12 18 16 13 10 6 3 4 13 13 18 7
88 84 77 73 69 65 62 57 49 45 42 37 34 32 30 27 26 24 25 24 23 22 21 20 20 17 14 11 10 8 6 10 19 22 22 12 10 9 5 9 13 16 11
84 82 80 77 72 66 62 57 51 46 41 36 32 31 30 30 29 29 31 30 29 28 27 28 26 23 22 19 17 13 11 12 16 19 24 21 11 10 10 9 14 17 17
87 81 80 77 74 69 63 59 53 46 41 37 32 32 31 32 33 35 36 37 35 35 34 34 31 31 29 28 24 19 17 15 16 18 20 24 17 10 10 12 13 18 19
87 82 79 77 74 69 64 60 57 50 43 39 35 33 35 37 38 39 39 41 41 41 40 39 37 38 36 36 32 25 23 19 20 21 22 18 17 11 14 17 16 18 21
89 83 79 76 73 68 65 62 59 54 50 46 39 36 36 38 39 41 42 43 46 47 45 43 43 44 44 42 38 32 27 24 24 24 22 18 19 16 17 20 19 19 20
90 85 82 78 73 68 66 64 61 58 53 48 44 40 38 41 42 45 44 43 47 49 49 48 48 49 47 48 43 38 33 31 28 26 25 25 24 23 25 21 20 18 19
81 83 81 78 75 70 68 66 61 59 56 50 48 44 41 42 41 44 41 39 42 45 48 49 49 49 50 50 46 44 39 36 33 35 31 27 27 32 33 28 20 16 18
69 81 82 81 78 75 72 69 64 64 59 51 49 49 42 43 41 40 38 35 33 36 38 43 44 45 47 45 41 39 38 38 38 41 41 37 33 40 37 24 34 23 20
64 77 89 85 84 83 79 75 71 65 61 55 52 50 45 44 41 37 36 35 31 30 27 33 35 38 37 37 29 27 28 28 28 31 35 33 36 49 32 32 46 32 22
41 74 89 87 84 84 82 72 73 65 60 54 52 51 48 46 42 39 40 37 32 30 27 30 32 34 35 34 28 23 22 23 22 25 33 38 44 39 40 40 31 35 22
33 41 81 91 88 88 83 77 75 61 53 52 46 47 48 47 46 46 48 41 35 36 33 32 33 33 35 33 30 26 24 28 30 30 38 38 32 31 35 41 39 39 32
44 41 49 79 97 89 83 79 67 58 58 57 46 47 49 45 50 53 53 48 41 42 39 38 36 34 37 33 26 23 26 33 35 34 40 37 39 42 45 44 46 43 38
53 49 47 59 64 85 84 78 67 59 51 55 50 53 53 50 54 55 55 52 46 45 42 45 40 34 35 31 33 36 34 35 38 38 42 39 47 44 49 45 45 50 47
45 50 56 50 69 77 78 85 76 62 65 63 60 60 59 56 57 57 56 54 43 44 43 45 41 36 36 33 36 37 36 37 36 37 40 43 50 52 39 37 36 40 46
48 51 63 63 56 78 80 86 89 86 82 76 61 65 55 57 58 59 58 46 38 37 45 46 43 39 35 40 40 35 36 34 35 35 41 42 36 35 38 36 38 37 38
57 55 57 64 69 68 78 105 99 92 88 81 72 65 64 59 55 56 50 38 34 36 44 44 43 40 40 39 39 32 17 17 15 18 18 20 29 35 36 35 37 40 44
73 62 61 60 64 70 69 84 110 105 97 87 71 68 59 53 53 49 43 35 32 36 40 41 40 41 41 39 37 39 38 36 27 16 18 26 30 32 29 27 25 25 30
78 76 69 64 61 69 74 72 100 109 106 90 79 58 50 51 53 49 38 35 34 37 39 39 42 39 38 38 37 41 38 38 39 35 36 31 24 23 23 25 20 22 21
81 84 76 67 66 65 81 74 95 111 112 97 69 59 55 55 52 47 38 38 34 37 38 42 37 37 34 30 31 36 36 34 36 30 31 31 27 23 19 19 19 19 18
Wind_Direction_850mb
170 163 154 155 153 153 151 150 151 151 152 151 150 147 144 142 139 135 132 128 126 120 114 109 106 107 106 102 104 110 141 209 241 233 210 198 204 128 68 72 141 93 94
162 163 157 158 155 154 152 150 152 152 151 151 148 147 145 144 142 139 136 132 124 116 110 107 103 100 97 98 98 101 117 150 164 172 172 173 167 135 129 269 264 306 303
164 161 161 161 159 159 157 155 156 156 157 156 155 154 152 151 149 148 147 144 136 131 126 123 118 111 102 95 101 105 114 141 156 150 140 145 132 99 70 263 275 310 258
167 161 163 166 163 163 162 161 162 163 165 161 161 164 163 164 163 161 160 158 154 151 154 152 145 133 124 119 110 100 116 157 159 152 136 119 95 83 26 355 325 273 224
168 164 165 169 168 168 167 168 169 173 173 172 170 176 178 177 178 178 175 176 184 186 194 190 185 159 137 108 91 102 142 175 184 174 163 149 93 61 28 353 346 315 229
170 167 170 171 173 173 174 175 179 180 180 181 182 185 189 188 190 195 198 203 209 215 220 225 232 231 189 114 144 157 168 188 208 201 214 215 130 77 41 11 354 335 239
171 172 174 177 178 179 180 181 186 187 188 189 192 195 198 202 207 213 219 223 227 228 238 245 249 252 250 257 256 231 191 198 222 231 244 256 225 139 33 349 334 352 267
174 174 176 181 181 184 186 186 192 193 194 197 202 207 211 216 222 228 235 237 239 239 244 249 254 257 260 262 262 258 236 219 228 239 253 247 234 220 245 305 317 347 321
179 177 179 183 185 187 191 192 196 199 199 203 211 218 222 227 233 238 243 245 246 248 248 250 256 259 263 264 263 264 257 248 249 253 247 248 253 230 230 253 295 314 326
181 183 184 186 188 190 193 198 201 204 205 208 216 225 231 234 239 243 248 251 252 253 252 254 255 261 263 266 265 264 263 259 265 271 261 248 245 243 229 257 286 304 314
185 188 190 190 193 194 196 201 204 207 211 214 220 231 237 241 244 247 252 256 258 257 254 255 258 260 262 263 265 265 266 261 261 274 262 243 236 250 247 262 278 305 304
190 192 195 197 198 198 201 205 210 210 213 218 222 232 243 249 253 254 256 257 261 260 258 257 258 259 261 263 265 265 268 265 257 268 242 229 244 256 261 263 268 294 296
197 196 199 202 202 204 208 212 215 218 219 222 228 233 246 250 255 258 260 262 265 265 262 262 262 262 265 267 269 269 268 265 258 252 230 238 254 266 253 243 257 288 297
204 206 207 207 208 211 215 219 223 226 226 226 234 237 244 253 256 260 264 269 268 269 269 267 265 265 266 268 271 272 269 265 261 247 236 242 262 263 255 248 253 288 305
230 218 214 214 214 216 221 224 227 230 232 235 241 244 245 252 256 262 268 269 267 269 274 271 268 266 266 268 272 276 273 265 263 256 242 254 259 266 263 269 267 263 290
256 245 224 220 220 217 220 224 225 231 237 239 242 247 250 254 259 264 267 268 267 272 278 278 273 268 264 263 263 278 281 256 257 248 242 252 268 265 255 272 246 252 279
261 249 235 223 223 224 223 228 231 230 236 235 243 251 254 258 266 271 271 269 278 275 282 276 270 260 252 252 254 265 275 248 238 248 251 261 278 264 270 263 262 262 265
284 267 245 237 229 228 226 222 232 224 228 239 243 255 256 262 271 278 278 277 282 277 279 274 271 264 251 250 255 257 266 258 249 256 268 279 275 267 270 278 275 271 266
279 281 267 245 240 233 229 229 226 227 238 241 246 252 252 260 271 279 283 282 276 274 276 274 270 271 255 253 258 267 269 260 255 261 270 274 282 278 275 272 269 263 260
285 273 262 255 248 240 234 231 227 236 235 246 251 252 251 260 269 276 284 285 280 276 277 270 268 268 259 260 265 273 267 265 258 263 269 273 275 285 287 279 253 250 254
310 269 254 259 251 243 236 226 230 234 236 241 249 254 251 259 267 275 281 280 281 275 276 266 262 261 254 256 264 271 272 268 266 264 270 278 283 286 278 270 256 257 253
310 297 267 256 244 243 233 226 228 239 234 240 248 250 249 256 263 273 278 276 276 274 268 257 252 254 249 249 257 265 264 269 269 269 272 281 278 276 273 267 262 261 253
298 302 290 274 259 249 242 234 237 230 232 234 242 241 242 249 262 275 268 270 278 270 264 255 252 250 244 245 251 246 259 261 279 273 270 280 279 275 274 268 262 257 247
292 290 295 285 273 259 252 243 239 232 232 236 242 242 240 251 267 267 262 263 270 266 261 253 251 249 240 242 243 247 252 263 270 280 282 288 292 280 281 278 275 264 257
289 288 289 292 279 264 242 241 234 233 234 240 243 237 242 257 264 259 257 256 262 265 253 248 251 239 238 240 245 249 253 259 263 264 279 292 294 287 280 275 271 256 246
286 281 277 283 283 258 243 240 235 237 238 236 239 237 247 255 258 252 250 249 261 260 251 250 231 232 242 238 246 249 253 258 260 263 269 283 286 292 283 276 262 252 235